Temp
7 5 5 4 4 4 4 3 3 3 2 1 1 0 -0 1 1 2 3 3 4 4
6 5 5 5 4 4 3 2 2 1 1 0 0 0 0 0 -1 0 1 3 3 3
6 6 5 4 4 4 4 3 2 1 0 0 0 0 -0 -2 -0 0 1 2 3 3
6 5 5 5 4 4 4 3 2 0 -0 -0 -0 -0 -0 -0 -0 0 1 1 2 1
7 6 4 4 5 4 3 3 3 1 -0 -0 -1 1 1 1 0 -0 0 1 0 1
7 8 7 5 5 4 4 3 3 1 0 1 1 1 0 -0 -0 -1 -1 -0 -0 0
6 5 6 5 5 7 6 4 2 2 1 1 0 1 2 1 -0 -1 -2 -1 -1 -0
5 4 5 4 5 5 5 5 3 2 2 2 1 0 -0 0 -0 0 -1 -0 0 -1
6 5 4 4 4 4 3 3 3 2 2 2 2 2 1 1 0 -1 0 -0 -0 -2
7 6 5 4 3 3 3 3 1 2 2 2 3 2 1 0 -1 -1 -0 -1 -1 0
5 5 4 3 3 3 2 2 1 1 1 2 2 1 0 -0 -2 -2 -1 -0 -0 -0
3 3 3 2 2 2 2 1 0 -0 2 1 1 -0 -0 -1 -2 -2 -2 -2 -3 -2
2 2 2 2 2 1 1 1 0 -0 -0 1 -0 -0 -1 -2 -3 -3 -3 -2 -3 -3
2 2 2 2 1 1 0 -0 -0 -1 -1 -0 -0 -1 -1 -2 -4 -4 -4 -3 -3 -3
Height
1440 1440 1441 1444 1445 1444 1445 1445 1444 1445 1446 1447 1452 1457 1462 1469 1479 1482 1481 1489 1493 1486
1438 1437 1436 1438 1442 1442 1442 1441 1442 1442 1445 1445 1448 1453 1456 1464 1470 1477 1482 1485 1485 1484
1437 1434 1433 1434 1436 1437 1438 1439 1440 1440 1442 1443 1446 1449 1452 1461 1468 1474 1477 1480 1481 1481
1434 1426 1428 1431 1432 1433 1433 1435 1436 1438 1440 1442 1445 1447 1451 1458 1466 1471 1474 1473 1475 1477
1428 1429 1428 1431 1428 1427 1428 1430 1431 1435 1439 1442 1444 1446 1451 1458 1463 1469 1469 1469 1472 1471
1421 1419 1422 1425 1423 1421 1422 1425 1429 1431 1436 1439 1443 1447 1452 1456 1459 1462 1463 1467 1470 1469
1416 1415 1413 1417 1417 1413 1417 1421 1426 1429 1432 1435 1439 1444 1448 1451 1453 1456 1461 1464 1466 1467
1411 1409 1410 1409 1409 1412 1413 1414 1420 1424 1427 1431 1435 1438 1443 1446 1447 1452 1456 1457 1458 1462
1408 1406 1405 1404 1404 1407 1410 1411 1414 1418 1422 1426 1430 1434 1438 1441 1444 1446 1450 1454 1455 1458
1404 1402 1399 1399 1399 1401 1403 1406 1409 1413 1418 1422 1425 1430 1434 1438 1440 1445 1447 1451 1451 1456
1399 1397 1395 1394 1395 1397 1398 1400 1403 1409 1414 1417 1421 1425 1430 1434 1437 1442 1446 1447 1451 1455
1393 1391 1390 1390 1392 1394 1394 1397 1400 1404 1407 1411 1414 1420 1425 1430 1433 1438 1442 1446 1450 1453
1389 1387 1386 1386 1387 1389 1391 1393 1396 1398 1402 1406 1411 1416 1422 1426 1430 1435 1439 1443 1448 1453
1385 1384 1384 1383 1384 1385 1387 1390 1393 1396 1399 1403 1408 1414 1418 1424 1429 1433 1436 1441 1445 1450
Wind_Speed
16 18 22 26 27 26 28 30 29 30 29 28 27 27 22 22 24 27 29 25 23 23
18 21 23 21 20 20 22 25 24 24 24 25 26 28 27 24 22 27 31 29 31 22
20 21 16 21 23 22 22 18 21 20 23 24 24 21 17 16 20 24 27 28 26 26
20 15 10 14 18 24 22 22 21 17 15 16 17 16 18 20 25 24 23 21 20 19
23 20 14 27 21 22 28 26 22 21 21 19 19 19 21 22 20 20 20 16 16 15
22 18 21 29 16 19 20 23 24 23 25 22 20 21 21 21 20 17 13 14 12 13
22 24 24 28 25 15 20 22 25 27 25 22 22 23 22 21 16 16 13 14 12 10
19 19 23 30 28 24 26 25 28 29 26 23 24 27 28 24 26 20 18 18 16 13
17 20 21 28 34 31 29 28 29 33 31 29 26 24 24 23 24 23 21 18 18 16
16 17 20 22 26 27 30 33 32 35 35 32 26 22 22 22 23 24 22 21 19 18
14 15 18 23 24 25 30 32 35 33 35 33 29 24 20 19 21 22 21 19 18 19
13 12 14 18 22 27 27 29 32 34 34 34 30 25 21 22 23 22 21 19 18 15
10 11 13 16 19 22 29 32 29 30 33 32 29 22 20 21 24 22 22 19 20 22
9 10 11 12 14 17 20 21 22 25 26 24 21 21 19 23 22 19 21 22 23 22
Wind_Direction
262 255 249 249 243 242 246 246 235 228 217 209 205 205 205 208 220 217 208 211 204 202
254 246 249 242 246 246 247 238 229 224 213 206 207 202 198 201 217 224 217 218 212 198
253 246 235 249 250 251 250 243 228 220 220 209 202 195 188 212 224 224 226 220 215 207
267 224 239 273 273 269 235 229 213 225 211 205 206 199 203 214 224 216 211 208 203 191
272 278 285 282 275 269 243 229 214 219 219 216 216 210 209 210 212 203 204 200 192 181
276 277 272 255 261 275 269 232 219 222 211 208 205 206 204 203 200 196 192 193 188 180
255 264 245 243 238 254 268 237 223 214 208 210 200 208 211 211 195 193 187 190 176 175
273 261 237 246 249 236 245 239 222 214 213 211 211 211 215 217 215 205 196 200 189 182
270 261 257 251 252 254 246 237 220 215 214 215 217 224 228 226 215 211 211 203 187 199
271 263 263 257 247 243 234 231 216 216 213 215 220 225 229 230 218 211 206 198 191 210
266 256 246 250 244 231 228 227 222 217 210 216 222 221 222 222 215 210 215 213 213 208
273 259 242 237 232 224 217 224 222 213 212 216 214 213 210 214 214 210 211 206 203 213
267 277 249 241 242 236 223 228 226 217 214 218 210 213 210 209 203 202 204 207 213 216
277 280 257 248 248 241 236 232 228 226 221 213 212 212 211 204 195 201 202 209 213 220